When you browse on this site, cookies collect data to enhance your experience and personalize the content and advertising you see.
Visit our Privacy Policy to learn more. By continuing to use the site, you agree to this use of cookies and data.
  • In Czech Republic
  • List of Countries
  • For 7 days
  • Water Temperature
  • Satellite Maps
  • Weather Map
  • Weather Widgets
  • user-avatar
    Login

    Hourly Weather Wareham Center

    Today, 17 July, Wednesday

    Time Temperature Precipitation Wind Pressure Humidity
    00:00 +25°C° 0 mm 5 mps 760 mmHg 78%
    01:00 +25°C° 0 mm 5 mps 760 mmHg 82%
    02:00 +23°C° 0 mm 5 mps 760 mmHg 85%
    03:00 +23°C° 0 mm 5 mps 759 mmHg 88%
    04:00 +23°C° 0 mm 4 mps 759 mmHg 92%
    05:00 +25°C° 0 mm 4 mps 759 mmHg 87%
    06:00 +26°C° 0 mm 4 mps 760 mmHg 83%
    07:00 +27°C° 0 mm 4 mps 760 mmHg 78%
    08:00 +28°C° 0 mm 4 mps 760 mmHg 74%
    09:00 +28°C° 0 mm 4 mps 760 mmHg 70%
    10:00 +29°C° 0 mm 4 mps 759 mmHg 66%
    11:00 +30°C° 0 mm 4 mps 759 mmHg 62%
    12:00 +33°C° 0 mm 5 mps 759 mmHg 57%
    13:00 +34°C° 0 mm 5 mps 758 mmHg 52%
    14:00 +33°C° 0 mm 5 mps 758 mmHg 55%
    15:00 +32°C° 0 mm 6 mps 758 mmHg 59%
    16:00 +32°C° 0 mm 6 mps 758 mmHg 63%
    17:00 +29°C° 0.3 mm 5 mps 758 mmHg 72%
    18:00 +27°C° 0.3 mm 3 mps 758 mmHg 81%
    19:00 +25°C° 0.3 mm 2 mps 758 mmHg 91%
    20:00 +25°C° 2.3 mm 2 mps 758 mmHg 93%
    21:00 +24°C° 2.3 mm 1 mps 758 mmHg 96%
    22:00 +24°C° 2.3 mm 1 mps 758 mmHg 99%
    23:00 +24°C° 2.9 mm 2 mps 758 mmHg 99%

    Tomorrow, 18 July, Thursday

    Time Temperature Precipitation Wind Pressure Humidity
    00:00 +23°C° 2.9 mm 2 mps 758 mmHg 99%
    01:00 +22°C° 2.9 mm 3 mps 758 mmHg 99%
    02:00 +22°C° 3.4 mm 3 mps 758 mmHg 99%
    03:00 +22°C° 3.4 mm 3 mps 758 mmHg 99%
    04:00 +22°C° 3.4 mm 3 mps 758 mmHg 99%
    05:00 +21°C° 4 mm 4 mps 759 mmHg 98%
    06:00 +21°C° 4 mm 4 mps 759 mmHg 98%
    07:00 +21°C° 4 mm 5 mps 760 mmHg 97%
    08:00 +21°C° 0.3 mm 5 mps 760 mmHg 97%
    09:00 +21°C° 0.3 mm 5 mps 760 mmHg 96%
    10:00 +21°C° 0.3 mm 6 mps 760 mmHg 95%
    11:00 +21°C° 0.1 mm 5 mps 760 mmHg 91%
    12:00 +22°C° 0.1 mm 5 mps 760 mmHg 87%
    13:00 +22°C° 0.1 mm 5 mps 760 mmHg 83%
    14:00 +22°C° 0.1 mm 5 mps 760 mmHg 84%
    15:00 +22°C° 0.1 mm 5 mps 760 mmHg 86%
    16:00 +21°C° 0.1 mm 4 mps 760 mmHg 88%
    17:00 +21°C° 0 mm 4 mps 760 mmHg 89%
    18:00 +20°C° 0 mm 3 mps 760 mmHg 90%
    19:00 +20°C° 0 mm 3 mps 760 mmHg 91%
    20:00 +20°C° 0 mm 3 mps 760 mmHg 91%
    21:00 +20°C° 0 mm 2 mps 760 mmHg 92%
    22:00 +20°C° 0 mm 2 mps 760 mmHg 93%
    23:00 +20°C° 0 mm 2 mps 760 mmHg 93%

    Day after tomorrow, 19 July, Friday

    Time Temperature Precipitation Wind Pressure Humidity
    00:00 +20°C° 0 mm 2 mps 760 mmHg 93%
    01:00 +20°C° 0 mm 2 mps 760 mmHg 93%
    02:00 +20°C° 0 mm 2 mps 759 mmHg 94%
    03:00 +20°C° 0 mm 2 mps 759 mmHg 94%
    04:00 +20°C° 0 mm 2 mps 759 mmHg 94%
    05:00 +21°C° 0 mm 2 mps 760 mmHg 91%
    06:00 +21°C° 0 mm 2 mps 760 mmHg 89%
    07:00 +23°C° 0 mm 2 mps 760 mmHg 86%
    08:00 +25°C° 0 mm 1 mps 760 mmHg 80%
    09:00 +27°C° 0 mm 1 mps 760 mmHg 74%
    10:00 +28°C° 0 mm 1 mps 760 mmHg 68%
    11:00 +29°C° 0 mm 1 mps 760 mmHg 65%
    12:00 +30°C° 0 mm 2 mps 759 mmHg 62%
    13:00 +31°C° 0 mm 3 mps 759 mmHg 60%
    14:00 +30°C° 0 mm 3 mps 758 mmHg 63%
    15:00 +30°C° 0 mm 4 mps 758 mmHg 66%
    16:00 +29°C° 0 mm 5 mps 758 mmHg 69%
    17:00 +28°C° 0 mm 5 mps 758 mmHg 75%
    18:00 +26°C° 0 mm 5 mps 758 mmHg 81%
    19:00 +25°C° 0 mm 5 mps 758 mmHg 87%
    20:00 +25°C° 0 mm 5 mps 758 mmHg 87%
    21:00 +25°C° 0 mm 5 mps 758 mmHg 88%
    22:00 +23°C° 0 mm 5 mps 758 mmHg 88%
    23:00 +23°C° 0 mm 5 mps 757 mmHg 89%

    20 July, Saturday

    Time Temperature Precipitation Wind Pressure Humidity
    00:00 +25°C° 0 mm 5 mps 757 mmHg 90%
    01:00 +25°C° 0 mm 4 mps 756 mmHg 92%
    02:00 +25°C° 0 mm 4 mps 756 mmHg 93%
    03:00 +25°C° 0 mm 4 mps 756 mmHg 94%
    04:00 +25°C° 0 mm 3 mps 756 mmHg 95%
    05:00 +26°C° 0 mm 4 mps 756 mmHg 89%
    06:00 +28°C° 0 mm 4 mps 756 mmHg 83%
    07:00 +30°C° 0 mm 4 mps 756 mmHg 77%
    08:00 +33°C° 0 mm 4 mps 756 mmHg 69%
    09:00 +35°C° 0 mm 5 mps 756 mmHg 62%
    10:00 +37°C° 0 mm 5 mps 756 mmHg 54%
    11:00 +37°C° 0 mm 5 mps 755 mmHg 51%
    12:00 +39°C° 0 mm 5 mps 755 mmHg 48%
    13:00 +39°C° 0 mm 6 mps 754 mmHg 45%
    14:00 +39°C° 0 mm 6 mps 754 mmHg 46%
    15:00 +39°C° 0 mm 6 mps 754 mmHg 47%
    16:00 +38°C° 0 mm 6 mps 753 mmHg 48%
    17:00 +35°C° 0 mm 6 mps 753 mmHg 54%
    18:00 +33°C° 0 mm 6 mps 753 mmHg 61%
    19:00 +32°C° 0 mm 6 mps 753 mmHg 67%
    20:00 +30°C° 0.1 mm 5 mps 753 mmHg 70%
    21:00 +29°C° 0.1 mm 4 mps 754 mmHg 72%
    22:00 +29°C° 0.1 mm 3 mps 754 mmHg 74%
    23:00 +28°C° 0.1 mm 3 mps 754 mmHg 76%

    21 July, Sunday

    Time Temperature Precipitation Wind Pressure Humidity
    00:00 +28°C° 0.1 mm 3 mps 754 mmHg 78%
    01:00 +27°C° 0.1 mm 2 mps 754 mmHg 80%
    02:00 +27°C° 0 mm 2 mps 754 mmHg 81%
    03:00 +27°C° 0 mm 2 mps 754 mmHg 82%
    04:00 +26°C° 0 mm 2 mps 754 mmHg 84%
    05:00 +28°C° 0 mm 2 mps 754 mmHg 81%
    06:00 +29°C° 0 mm 2 mps 755 mmHg 78%
    07:00 +30°C° 0 mm 2 mps 755 mmHg 75%
    08:00 +32°C° 0 mm 2 mps 755 mmHg 66%
    09:00 +34°C° 0 mm 1 mps 755 mmHg 56%
    10:00 +36°C° 0 mm 1 mps 755 mmHg 47%
    11:00 +37°C° 0 mm 2 mps 755 mmHg 45%
    12:00 +37°C° 0 mm 2 mps 755 mmHg 44%
    13:00 +38°C° 0 mm 2 mps 755 mmHg 42%
    14:00 +37°C° 0 mm 3 mps 755 mmHg 47%
    15:00 +36°C° 0 mm 3 mps 755 mmHg 51%
    16:00 +35°C° 0 mm 3 mps 755 mmHg 55%
    17:00 +33°C° 0 mm 3 mps 755 mmHg 64%
    18:00 +30°C° 0 mm 3 mps 755 mmHg 73%
    19:00 +28°C° 0 mm 2 mps 755 mmHg 82%
    20:00 +27°C° 0 mm 2 mps 755 mmHg 82%
    21:00 +26°C° 0 mm 2 mps 755 mmHg 83%
    22:00 +25°C° 0 mm 2 mps 755 mmHg 84%
    23:00 +25°C° 0 mm 2 mps 755 mmHg 85%

    22 July, Monday

    Time Temperature Precipitation Wind Pressure Humidity
    00:00 +25°C° 0 mm 2 mps 754 mmHg 86%
    01:00 +25°C° 0 mm 2 mps 754 mmHg 87%
    02:00 +25°C° 0.4 mm 2 mps 754 mmHg 90%
    03:00 +25°C° 0.4 mm 3 mps 754 mmHg 92%
    04:00 +25°C° 0.4 mm 3 mps 754 mmHg 94%
    05:00 +25°C° 0.6 mm 3 mps 754 mmHg 95%
    06:00 +26°C° 0.6 mm 2 mps 753 mmHg 95%
    07:00 +26°C° 0.6 mm 2 mps 753 mmHg 95%
    08:00 +28°C° 0 mm 2 mps 753 mmHg 87%
    09:00 +29°C° 0 mm 2 mps 753 mmHg 78%
    10:00 +30°C° 0 mm 3 mps 754 mmHg 70%
    11:00 +27°C° 0.9 mm 3 mps 754 mmHg 78%
    12:00 +23°C° 0.9 mm 4 mps 754 mmHg 86%
    13:00 +20°C° 0.9 mm 4 mps 754 mmHg 93%
    14:00 +19°C° 1 mm 4 mps 754 mmHg 94%
    15:00 +19°C° 1 mm 5 mps 754 mmHg 96%
    16:00 +17°C° 1 mm 5 mps 754 mmHg 97%
    17:00 +17°C° 0.5 mm 5 mps 754 mmHg 97%
    18:00 +17°C° 0.5 mm 5 mps 754 mmHg 96%
    19:00 +18°C° 0.5 mm 4 mps 754 mmHg 96%
    20:00 +18°C° 0.8 mm 4 mps 754 mmHg 96%
    21:00 +18°C° 0.8 mm 3 mps 755 mmHg 97%
    22:00 +18°C° 0.8 mm 3 mps 755 mmHg 97%
    23:00 +18°C° 2.9 mm 3 mps 755 mmHg 97%
    Show more